1374883226498,56.5002
1374883286498,56.6018
1374883346498,56.6060
1374883406498,56.5687
1374883466498,56.7154
1374883526498,56.6220
1374883586498,56.5170
1374883646498,56.5406
1374883706498,56.4329
1374883766498,56.5652
1374883826498,56.3196
1374883886498,56.4601
1374883946498,56.5952
1374884006498,56.5422
1374884066498,56.7019
1374884126498,56.5726
1374884186498,56.5621
1374884246498,56.6848
1374884306498,56.4354
1374884366498,56.3769
1374884426498,56.4628
1374884486498,56.4393
1374884546498,56.5333
1374884606498,56.4502
1374884666498,56.3187
1374884726498,56.3831
1374884786498,56.5620
1374884846498,56.5311
1374884906498,56.3977
1374884966498,56.5133
1374885026498,56.4616
1374885086498,56.6014
1374885146498,56.3835
1374885206498,56.4013
1374885266498,56.6157
1374885326498,56.6466
1374885386498,56.4212
1374885446498,56.5141
1374885506498,56.5212
1374885566498,56.3019
1374885626498,56.5010
1374885686498,56.4111
1374885746498,56.4077
1374885806498,56.3307
1374885866498,56.5547
1374885926498,56.3781
1374885986498,56.4142
1374886046498,56.4932
1374886106498,56.3175
1374886166498,56.2872
1374886226498,56.3124
1374886286498,56.5231
1374886346498,56.3083
1374886406498,56.4669
1374886466498,56.2070
1374886526498,56.4519
1374886586498,56.3320
1374886646498,56.4637
1374886706498,56.1348
1374886766498,56.3873
1374886826508,56.3402
1374886886508,56.3652
1374886946508,56.3894
1374887006508,56.4873
1374887066508,56.3842
1374887126508,56.3496
1374887186508,56.3925
1374887246508,56.3392
1374887306508,56.2708
1374887366508,56.2326
1374887426508,56.2453
1374887486508,56.2803
1374887546508,56.2220
1374887606508,56.3169
1374887666508,56.2370
1374887726508,56.2813
1374887786508,56.1714
1374887846508,56.2324
1374887906508,56.2310
1374887966508,56.3131
1374888026508,56.2956
1374888086508,56.2146
1374888146508,56.1300
1374888206508,56.0817
1374888266508,56.1896
1374888326508,56.3100
1374888386508,56.1702
1374888446508,56.2118
1374888506508,56.2818
1374888566508,56.3565
1374888626508,56.2900
1374888686508,56.3218
1374888746508,56.1126
1374888806508,56.1046
1374888866508,56.0518
1374888926508,56.3473
1374888986508,56.4779
1374889046508,55.9806
1374889106508,56.2691
1374889166508,56.1306
1374889226508,55.9960
1374889286508,56.1986
1374889346508,56.0829
1374889406508,56.2535
1374889466508,56.1553
1374889526508,56.2199
1374889586508,56.0322
1374889646508,56.1649
1374889706508,55.9705
1374889766508,56.2807
1374889826508,56.0086
1374889886508,56.0506
1374889946508,56.1930
1374890006508,56.0002
1374890066508,56.0318
1374890126508,56.2152
1374890186508,56.2220
1374890246508,55.9691
1374890306508,56.1823
1374890366508,56.0174
1374890426517,56.0048
1374890486517,56.0929
1374890546517,56.0574
1374890606517,55.8883
1374890666517,56.1009
1374890726517,55.8091
1374890786517,55.8263
1374890846517,55.9440
1374890906517,55.8999
1374890966517,56.1653
1374891026517,56.1247
1374891086517,55.9647
1374891146517,56.0129
1374891206517,55.9903
1374891266517,56.0151
1374891326517,56.0607
1374891386517,55.9728
1374891446517,55.9048
1374891506517,56.1781
1374891566517,56.0122
1374891626517,56.1363
1374891686517,55.9802
1374891746517,55.9805
1374891806517,56.0280
1374891866517,56.0976
1374891926517,55.9439
1374891986517,55.8820
1374892046517,55.9212
1374892106517,55.8478
1374892166517,55.9378
1374892226517,55.9398
1374892286517,56.1592
1374892346517,56.0776
1374892406517,55.9512
1374892466517,55.8913
1374892526517,56.1668
1374892586517,56.0898
1374892646517,55.9711
1374892706517,56.0305
1374892766517,56.2101
1374892826517,55.9629
1374892886517,55.9555
1374892946517,56.0963
1374893006517,56.1203
1374893066517,55.9949
1374893126517,55.9750
1374893186517,56.0440
1374893246517,56.0320
1374893306517,55.9030
1374893366517,55.9505
1374893426517,56.0949
1374893486517,56.0519
1374893546517,56.0805
1374893606517,56.1939
1374893666517,55.9630
1374893726517,56.0484
1374893786517,55.9877
1374893846517,56.0520
1374893906517,56.1872
1374893966517,56.1087
1374894026527,56.1894
1374894086527,55.9746
1374894146527,56.1355
1374894206527,56.0542
1374894266527,55.9788
1374894326527,56.1215
1374894386527,56.0737
1374894446527,56.0888
1374894506527,56.1163
1374894566527,55.9445
1374894626527,56.0104
1374894686527,56.0009
1374894746527,55.9410
1374894806527,56.0669
1374894866527,56.1393
1374894926527,56.0132
1374894986527,56.1028
1374895046527,56.2363
1374895106527,56.0164
1374895166527,55.9849
1374895226527,56.1534
1374895286527,56.0479
1374895346527,56.0882
1374895406527,56.2089
1374895466527,56.1356
1374895526527,56.0107
1374895586527,56.0270
1374895646527,56.1042
1374895706527,56.1792
1374895766527,56.1375
1374895826527,56.0841
1374895886527,56.0087
1374895946527,56.0653
1374896006527,56.0979
1374896066527,56.2772
1374896126527,56.1470
1374896186527,56.1408
1374896246527,56.2682
1374896306527,56.2875
1374896366527,56.3205
1374896426527,56.3157
1374896486527,56.1899
1374896546527,56.1587
1374896606527,56.0990
1374896666527,56.1771
1374896726527,56.2932
1374896786527,56.1511
1374896846527,56.2829
1374896906527,56.4053
1374896966527,56.2430
1374897026527,56.1929
1374897086527,56.4659
1374897146527,56.3058
1374897206527,56.3482
1374897266527,56.3377
1374897326527,56.2327
1374897386527,56.2609
1374897446527,56.4553
1374897506527,56.2562
1374897566527,56.3962
1374897626536,56.3737
1374897686536,56.2551
1374897746536,56.4715
1374897806536,56.5252
1374897866536,56.4173
1374897926536,56.4612
1374897986536,56.2313
1374898046536,56.4340
1374898106536,56.3752
1374898166536,56.3499
1374898226536,56.4149
1374898286536,56.2324
1374898346536,56.5511
1374898406536,56.4689
1374898466536,56.4334
1374898526536,56.4565
1374898586536,56.4424
1374898646536,56.3797
1374898706536,56.2850
1374898766536,56.3312
1374898826536,56.3263
1374898886536,56.3231
1374898946536,56.2027
1374899006536,56.3089
1374899066536,56.4115
1374899126536,56.5563
1374899186536,56.3200
1374899246536,56.3353
1374899306536,56.3211
1374899366536,56.4811
1374899426536,56.4290
1374899486536,56.4780
1374899546536,56.3122
1374899606536,56.3524
1374899666536,56.4350
1374899726536,56.3283
1374899786536,56.2410
1374899846536,56.3991
1374899906536,56.4310
1374899966536,56.6472
1374900026536,56.5252
1374900086536,56.3258
1374900146536,56.4802
1374900206536,56.4292
1374900266536,56.5620
1374900326536,56.5154
1374900386536,56.3400
1374900446536,56.5608
1374900506536,56.4127
1374900566536,56.5772
1374900626536,56.6737
1374900686536,56.6212
1374900746536,56.5632
1374900806536,56.4611
1374900866536,56.3738
1374900926536,56.6693
1374900986536,56.3642
1374901046536,56.8574
1374901106536,56.7486
1374901166536,56.5375
1374901226545,56.6523
1374901286545,56.5969
1374901346545,56.5242
1374901406545,56.5993
1374901466545,56.6163
1374901526545,56.7212
1374901586545,56.5880
1374901646545,56.4981
1374901706545,56.6062
1374901766545,56.6233
1374901826545,56.7694
1374901886545,56.7141
1374901946545,56.6876
1374902006545,56.6700
1374902066545,56.7042
1374902126545,56.5388
1374902186545,56.7174
1374902246545,56.4990
1374902306545,56.6097
1374902366545,56.6518
1374902426545,56.9063
1374902486545,56.6871
1374902546545,56.8132
1374902606545,56.6130
1374902666545,56.6947
1374902726545,56.7589
1374902786545,56.8426
1374902846545,56.5463
1374902906545,56.6794
1374902966545,56.6608
1374903026545,56.6228
1374903086545,56.8181
1374903146545,56.7782
1374903206545,56.7451
1374903266545,56.7050
1374903326545,56.6858
1374903386545,56.9676
1374903446545,56.6639
1374903506545,56.7432
1374903566545,56.5927
1374903626545,56.6414
1374903686545,56.7917
1374903746545,56.7350
1374903806545,56.6051
1374903866545,56.5348
1374903926545,56.6981
1374903986545,56.7683
1374904046545,56.7229
1374904106545,56.6461
1374904166545,56.5530
1374904226545,56.7663
1374904286545,56.7930
1374904346545,56.7617
1374904406545,56.7099
1374904466545,56.6788
1374904526545,56.6451
1374904586545,56.9378
1374904646545,56.8539
1374904706545,56.7793
1374904766545,56.8279
1374904826554,56.4597
1374904886554,56.7564
1374904946554,56.6774
1374905006554,56.6650
1374905066554,56.8084
1374905126554,56.7451
1374905186554,57.0265
1374905246554,56.7628
1374905306554,56.7083
1374905366554,56.7931
1374905426554,56.7223
1374905486554,56.6406
1374905546554,56.9302
1374905606554,56.8073
1374905666554,56.6416
1374905726554,56.6774
1374906806554,56.8213
1374906866554,56.8346
1374906926554,56.8444
1374906986554,56.7872
1374907046554,56.6447
1374907106554,56.7976
1374907166554,56.8426
1374907226554,56.7404
1374907286554,56.8428
1374907346554,56.8492
1374907406554,56.8218
1374907466554,56.9182
1374907526554,56.7439
1374907586554,56.9445
1374907646554,56.8536
1374907706554,56.8788
1374907766554,56.6987
1374907826554,56.8394
1374907886554,56.8330
1374907946554,56.8249
1374908006554,56.9781
1374908066554,56.9806
1374908126554,57.0114
1374908186554,57.1312
1374908246554,56.8044
1374908306554,56.6718
1374908366554,56.8855
1374908426563,56.8331
1374908486563,56.8792
1374908546563,57.0245
1374908606563,56.9314
1374908666563,56.9443
1374908726563,56.7390
1374908786563,56.9575
1374908846563,56.8687
1374908906563,57.0500
1374908966563,56.9453
1374909026563,56.9531
1374909086563,56.8837
1374909146563,56.8797
1374909206563,56.8758
1374909266563,56.6671
1374909326563,56.8765
1374909386563,56.8465
1374909446563,56.9561
1374909506563,56.6246
1374909566563,56.8755
1374909626563,56.7565
1374909686563,56.8933
1374909746563,56.8289
1374909806563,56.8911
1374909866563,56.8203
1374909926563,56.8288
1374909986563,56.8472
1374910046563,57.0954
1374910106563,57.0170
1374910166563,57.0347
1374910226563,56.7401
1374910286563,56.9186
1374910346563,56.9191
1374910406563,56.9253
1374910466563,56.9736
1374910526563,56.8552
1374910586563,57.1707
1374910646563,56.8696
1374910706563,56.7620
1374910766563,56.9988
1374910826563,57.0422
1374910886563,56.6968
1374910946563,56.7634
1374911006563,56.8766
1374911066563,56.7020
1374911126563,56.9433
1374911186563,57.0630
1374911246563,56.8788
1374911306563,56.7925
1374911366563,56.8271
1374911426563,56.9212
1374911486563,56.6752
1374911546563,56.9610
1374911606563,56.9219
1374911666563,57.0272
1374911726563,56.9015
1374911786563,57.0846
1374911846563,56.8877
1374911906563,56.8667
1374911966563,56.9285
1374912026572,56.8522
1374912086572,57.0625
1374912146572,56.7859
1374912206572,56.8643
1374912266572,56.9400
1374912326572,56.9730
1374912386572,56.9060
1374912446572,57.0443
1374912506572,56.8170
1374912566572,56.8374
1374912626572,56.7507
1374912686572,56.9764
1374912746572,56.8500
1374912806572,56.9437
1374912866572,56.9975
1374912926572,56.9448
1374912986572,56.9157
1374913046572,56.8940
1374913106572,56.9509
1374913166572,56.8948
1374913226572,56.8763
1374913286572,56.7070
1374913346572,56.8820
1374913406572,56.8878
1374913466572,56.7735
1374913526572,56.9171
1374913586572,56.8629
1374913646572,56.8488
1374913706572,56.9512
1374913766572,57.0005
1374913826572,57.0245
1374913886572,57.0459
1374913946572,57.0148
1374914006572,57.0123
1374914066572,57.1037
1374914126572,57.1721
1374914186572,56.9615
1374914246572,56.9581
1374914306572,57.0591
1374914366572,56.9918
1374914426572,57.1488
1374914486572,56.9984
1374914546572,56.9750
1374914606572,57.1347
1374914666572,57.2065
1374914726572,57.2562
1374914786572,57.0355
1374914846572,57.2653
1374914906572,57.2284
1374914966572,57.0447
1374915026572,57.1234
1374915086572,57.1090
1374915146572,57.0975
1374915206572,57.0400
1374915266572,57.2042
1374915326572,56.9689
1374915386572,57.1138
1374915446572,57.0207
1374915506572,56.8918
1374915566572,56.7941
1374915626581,57.2069
1374915686581,57.0974
1374915746581,57.0545
1374915806581,56.8848
1374915866581,57.0294
1374915926581,57.1535
1374915986581,57.0015
1374916046581,56.9252
1374916106581,57.1208
1374916166581,57.0630
1374916226581,56.9141
1374916286581,56.9741
1374916346581,56.9505
1374916406581,56.8294
1374916466581,56.9741
1374916526581,56.8365
1374916586581,56.9368
1374916646581,56.8780
1374916706581,56.7379
1374916766581,56.8191
1374916826581,56.9942
1374916886581,56.9064
1374916946581,57.0008
1374917006581,56.9771
1374917066581,56.9651
1374917126581,56.9650
1374917186581,56.9734
1374917246581,56.8685
1374917306581,56.9034
1374917366581,56.9507
1374917426581,57.0291
1374917486581,57.0664
1374917546581,56.9727
1374917606581,57.0102
1374917666581,57.1205
1374917726581,57.0229
1374917786581,56.9594
1374917846581,57.0577
1374917906581,57.0324
1374917966581,57.1117
1374918026581,57.0733
1374918086581,57.1598
1374918146581,57.2996
1374918206581,57.2770
1374918266581,56.9162
1374918326581,57.1403
1374918386581,56.9666
1374918446581,57.1067
1374918506581,56.9999
1374918566581,56.9251
1374918626581,57.1869
1374918686581,56.9479
1374918746581,57.0351
1374918806581,57.1660
1374918866581,57.1993
1374918926581,57.0141
1374918986581,57.0459
1374919046581,56.9494
1374919106581,57.0508
1374919166581,56.9066
1374919226590,57.0205
1374919286590,56.9939
1374919346590,56.8989
1374919406590,57.0470
1374919466590,57.0678
1374919526590,56.9882
1374919586590,57.0036
1374919646590,57.1513
1374919706590,57.1406
1374919766590,57.0971
1374919826590,57.0096
1374919886590,56.9765
1374919946590,57.0549
1374920006590,57.1145
1374920066590,57.1045
1374920126590,57.1347
1374920186590,56.8840
1374920246590,57.0915
1374920306590,57.2204
1374920366590,56.9412
1374920426590,57.2053
1374920486590,57.1818
1374920546590,57.1722
1374920606590,57.1285
1374920666590,56.8977
1374920726590,57.1245
1374920786590,57.2627
1374920846590,57.0903
1374920906590,57.2267
1374920966590,57.1930
1374921026590,57.1232
1374921086590,57.2000
1374921146590,57.4354
1374921206590,57.3726
1374921266590,57.3282
1374921326590,57.2136
1374921386590,57.2993
1374921446590,57.3381
1374921506590,57.2275
1374921566590,57.3333
1374921626590,57.5485
1374921686590,57.3496
1374921746590,57.3157
1374921806590,57.5126
1374921866590,57.6111
1374921926590,57.5919
1374921986590,57.5448
1374922046590,57.4657
1374922106590,57.4405
1374922166590,57.4317
1374922226590,57.5760
1374922286590,57.6222
1374922346590,57.5492
1374922406590,57.5970
1374922466590,57.4642
1374922526590,57.7400
1374922586590,57.5674
1374922646590,57.2699
1374922706590,57.3114
1374922766590,57.3239
1374922826599,57.6274
1374922886599,57.3745
1374922946599,57.5306
1374923006599,57.4016
1374923066599,57.6395
1374923126599,57.3540
1374923186599,57.6177
1374923246599,57.4573
1374923306599,57.3111
1374923366599,57.6175
1374923426599,57.6112
1374923486599,57.3837
1374924026599,57.4667
1374924086599,57.4833
1374924146599,57.3066
1374924206599,57.4801
1374924266599,57.4939
1374924326599,57.3393
1374924386599,57.4379
1374924446599,57.2823
1374924506599,57.4297
1374924566599,57.3294
1374924626599,57.3150
1374924686599,57.4071
1374924746599,57.3678
1374924806599,57.2337
1374924866599,57.4333
1374924926599,57.4469
1374924986599,57.3498
1374925046599,57.3672
1374925106599,57.5933
1374925166599,57.3120
1374925226599,57.3358
1374925286599,57.3114
1374925346599,57.0834
1374925406599,57.4744
1374925466599,57.2303
1374925526599,57.0882
1374925586599,57.2846
1374925646599,57.4080
1374925706599,57.3405
1374925766599,57.4550
1374925826599,57.3555
1374925886599,57.3260
1374925946599,57.1419
1374926006599,57.1737
1374926066599,57.0725
1374926126599,57.3692
1374926186599,57.1763
1374926246599,57.3238
1374926306599,57.2247
1374926366599,57.1777
1374926426608,57.3356
1374926486608,57.2532
1374926546608,57.3300
1374926606608,57.1628
1374926666608,57.3687
1374926726608,57.4206
1374926786608,57.1261
1374926846608,57.3697
1374926906608,57.1488
1374926966608,57.1679
1374927026608,57.3412
1374927086608,57.2109
1374927146608,57.4602
1374927206608,57.1384
1374927266608,57.1719
1374927326608,57.1233
1374927386608,57.2804
1374927446608,57.1643
1374927506608,57.0984
1374927566608,57.1876
1374927626608,57.2764
1374927686608,57.2192
1374927746608,57.1402
1374927806608,57.0249
1374927866608,57.2191
1374927926608,57.2490
1374927986608,57.1577
1374928046608,56.9994
1374928106608,57.0990
1374928166608,57.2891
1374928226608,57.1762
1374928286608,57.1016
1374928346608,57.1994
1374928406608,57.2661
1374928466608,56.9826
1374928526608,57.1393
1374928586608,57.2402
1374928646608,57.0635
1374928706608,57.1393
1374928766608,57.1345
1374928826608,57.0061
1374928886608,57.2017
1374928946608,57.0599
1374929006608,57.0460
1374929066608,57.0158
1374929126608,57.2008
1374929186608,57.2004
1374929246608,57.0721
1374929306608,57.1383
1374929366608,57.4411
1374929426608,57.2459
1374929486608,57.1481
1374929546608,57.1776
1374929606608,57.2198
1374929666608,57.3018
1374929726608,57.0397
1374929786608,57.0688
1374929846608,57.0872
1374929906608,57.1374
1374929966608,57.0026
1374930026617,57.1807
1374930086617,56.9904
1374930146617,57.0495
1374930206617,56.9431
1374930266617,57.0270
1374930326617,56.9847
1374930386617,57.0544
1374930446617,56.9570
1374930506617,56.9780
1374930566617,57.2586
1374930626617,57.0334
1374930686617,56.9604
1374930746617,57.0738
1374930806617,57.1779
1374930866617,56.9891
1374930926617,57.0969
1374930986617,56.9869
1374931046617,57.0863
1374931106617,57.0557
1374931166617,56.8486
1374931226617,56.8259
1374931286617,57.0484
1374931346617,56.9971
1374931406617,56.8970
1374931466617,57.0130
1374931526617,56.9464
1374931586617,57.1661
1374931646617,57.1387
1374931706617,57.0687
1374931766617,57.1277
1374931826617,56.9317
1374931886617,56.9838
1374931946617,57.1237
1374932006617,56.9028
1374932066617,56.9234
1374932126617,57.1389
1374932186617,57.1065
1374932246617,57.1374
1374932306617,56.9755
1374932366617,56.9866
1374932426617,57.0880
1374932486617,57.1433
1374932546617,56.9745
1374932606617,57.0899
1374932666617,57.0656
1374932726617,57.0377
1374932786617,57.0473
1374932846617,56.9494
1374932906617,57.0998
1374932966617,57.1232
1374933026617,57.1043
1374933086617,57.1096
1374933146617,57.0085
1374933206617,56.9685
1374933266617,57.1428
1374933326617,56.9885
1374933386617,57.2416
1374933446617,56.9921
1374933506617,57.0147
1374933566617,57.0844
1374933626626,57.0703
1374933686626,57.1210
1374933746626,57.1835
1374933806626,56.9358
1374933866626,56.8978
1374933926626,57.1131
1374933986626,57.0209
1374934046626,57.0274
1374934106626,57.2837
1374934166626,56.8236
1374934226626,56.8635
1374934286626,57.3201
1374934346626,57.0942
1374934406626,57.1943
1374934466626,56.9680
1374934526626,56.9621
1374934586626,56.9340
1374934646626,57.0794
1374934706626,57.0139
1374934766626,56.9466
1374934826626,56.9853
1374934886626,57.0701
1374934946626,57.0982
1374935006626,56.9237
1374935066626,57.1236
1374935126626,57.1401
1374935186626,57.1932
1374935246626,57.2158
1374935306626,57.0163
1374935366626,56.9843
1374935426626,57.1237
1374935486626,56.9765
1374935546626,57.2146
1374935606626,57.1959
1374935666626,57.0756
1374935726626,57.1459
1374935786626,57.1875
1374935846626,57.0563
1374935906626,57.0387
1374935966626,57.0612
1374936026626,57.1775
1374936086626,57.0780
1374936146626,56.9869
1374936206626,57.0470
1374936266626,56.9389
1374936326626,57.0031
1374936386626,57.2089
1374936446626,57.0722
1374936506626,56.9950
1374936566626,57.0810
1374936626626,56.9499
1374936686626,57.1707
1374936746626,57.1229
1374936806626,57.0926
1374936866626,56.9983
1374936926626,56.9455
1374936986626,57.0679
1374937046626,57.2594
1374937106626,57.0834
1374937166626,56.9882
1374937226636,57.1647
1374937286636,57.1068
1374937346636,57.1555
1374937406636,57.1047
1374937466636,57.1285
1374937526636,57.0780
1374937586636,57.0766
1374937646636,57.0543
1374937706636,57.0671
1374937766636,57.2130
1374937826636,57.2295
1374937886636,56.9857
1374937946636,57.1684
1374938006636,57.3999
1374938066636,57.2362
1374938126636,57.1202
1374938186636,57.1101
1374938246636,57.2136
1374938306636,57.2777
1374938366636,57.1670
1374938426636,57.0997
1374938486636,57.2791
1374938546636,57.1970
1374938606636,57.0878
1374938666636,57.2526
1374938726636,57.3124
1374938786636,57.2906
1374938846636,56.9193
1374938906636,57.2284
1374938966636,57.0977
1374939026636,57.3381
1374939086636,57.3631
1374939146636,57.4217
1374939206636,57.2114
1374939266636,57.0829
1374939326636,57.2226
1374939386636,57.2702
1374939446636,57.0846
1374939506636,57.4632
1374939566636,57.3991
1374939626636,57.3643
1374939686636,57.3331
1374939746636,57.2820
1374939806636,57.3128
1374939866636,57.2865
1374939926636,57.3998
1374939986636,57.4168
1374940046636,57.5509
1374940106636,57.3383
1374940166636,57.2325
1374940226636,57.2128
1374940286636,57.2477
1374940346636,57.3877
1374940406636,57.2227
1374940466636,57.1879
1374940526636,57.2777
1374940586636,57.4759
1374940646636,57.2356
1374940706636,57.2871
1374940766636,57.3547
1374940826646,57.4186
1374940886646,57.3503
1374940946646,57.2889
1374941006646,57.3813
1374941066646,57.1344
1374941126646,57.4051
1374941186646,57.4905
1374941246646,57.2776
1374941306646,57.0717
1374941366646,57.2249
1374941426646,57.3056
1374941486646,57.2586
1374941546646,57.3032
1374941606646,57.4996
1374941666646,57.5505
1374941726646,57.4712
1374941786646,57.5621
1374941846646,57.4212
1374941906646,57.3117
1374941966646,57.2419
1374942026646,57.4965
1374942086646,57.4392
1374942146646,57.4787
1374942206646,57.3750
1374942266646,57.4888
1374942326646,57.4349
1374942386646,57.5038
1374942446646,57.2985
1374942506646,57.4872
1374942566646,57.7748
1374942626646,57.4267
1374942686646,57.3353
1374942746646,57.3979
1374942806646,57.5244
1374942866646,57.4421
1374942926646,57.4874
1374942986646,57.5365
1374943046646,57.6535
1374943106646,57.6212
1374943166646,57.4672
1374943226646,57.4156
1374943286646,57.4804
1374943346646,57.5482
1374943406646,57.2463
1374943466646,57.5136
1374943526646,57.3990
1374943586646,57.6125
1374943646646,57.5648
1374943706646,57.5619
1374943766646,57.4283
1374943826646,57.3496
1374943886646,57.5475
1374943946646,57.5513
1374944006646,57.5438
1374944066646,57.5373
1374944126646,57.5391
1374944186646,57.5104
1374944246646,57.6090
1374944306646,57.5624
1374944366646,57.5899
1374944426656,57.7355
1374944486656,57.4706
1374944546656,57.5806
1374944606656,57.6643
1374944666656,57.6383
1374944726656,57.6553
1374944786656,57.6306
1374944846656,57.7633
1374944906656,57.6299
1374944966656,57.7273
1374945026656,57.7941
1374945086656,57.6175
1374945146656,57.5606
1374945206656,57.8217
1374945266656,57.7208
1374945326656,57.7671
1374945386656,57.7217
1374945446656,57.7600
1374945506656,57.6286
1374945566656,57.8684
1374945626656,57.9075
1374945686656,57.9817
1374945746656,57.8747
1374945806656,57.7847
1374945866656,57.8626
1374945926656,58.0542
1374945986656,57.8424
1374946046656,57.9027
1374946106656,57.9546
1374946166656,57.9169
1374946226656,57.9336
1374946286656,57.9229
1374946346656,57.8628
1374946406656,57.9356
1374946466656,57.9216
1374946526656,57.7584
1374946586656,57.8019
1374946646656,57.9878
1374946706656,57.8932
1374946766656,57.7194
1374946826656,57.9062
1374946886656,57.8665
1374946946656,57.7008
1374947006656,57.7545
1374947066656,58.0570
1374947126656,57.9377
1374947186656,57.9704
1374947246656,57.9438
1374947306656,58.0896
1374947366656,58.0998
1374947426656,57.9513
1374947486656,58.1928
1374947546656,57.9709
1374947606656,57.8403
1374947666656,58.1611
1374947726656,58.1492
1374947786656,58.0165
1374947846656,57.9226
1374947906656,57.9910
1374947966656,58.0788
1374948026667,57.9200
1374948086667,57.9972
1374948146667,57.9987
1374948206667,58.0266
1374948266667,57.9057
1374948326667,58.0024
1374948386667,58.1997
1374948446667,58.0473
1374948506667,58.1328
1374948566667,58.2004
1374948626667,58.1441
1374948686667,58.1491
1374948746667,58.2193
1374948806667,58.1038
1374948866667,57.9115
1374948926667,58.1199
1374948986667,57.8817
1374949046667,57.9937
1374949106667,58.0762
1374949166667,58.2374
1374949226667,57.9415
1374949286667,58.1119
1374949346667,57.9763
1374949406667,57.9216
1374949466667,58.1135
1374949526667,58.3340
1374949586667,57.9518
1374949646667,57.9611
1374949706667,57.9294
1374949766667,57.9685
1374949826667,57.9017
1374949886667,57.9518
1374949946667,57.8627
1374950006667,57.9556
1374950066667,58.2108